Time,TemperatureF,DewpointF,PressureIn,WindDirection,WindDirectionDegrees,WindSpeedMPH,WindSpeedGustMPH,Humidity,HourlyPrecipIn,Conditions,Clouds,dailyrainin,SoftwareType,DateUTC
2013-05-19 00:02:00,58.7,57.6,30.22,East,84,4.0,4.0,96,0.00,,,0.00,Wunderground v.1.15,2013-05-19 04:02:00,
2013-05-19 00:03:00,58.7,57.6,30.22,East,80,3.0,4.0,96,0.00,,,0.00,Wunderground v.1.15,2013-05-19 04:03:00,
2013-05-19 00:04:00,58.8,57.7,30.22,NE,54,3.0,4.0,96,0.00,,,0.00,Wunderground v.1.15,2013-05-19 04:04:00,
2013-05-19 00:10:00,58.8,57.7,30.22,NE,47,3.0,3.0,96,0.00,,,0.00,Wunderground v.1.15,2013-05-19 04:10:00,
2013-05-19 00:11:00,58.8,57.7,30.22,NE,47,3.0,3.0,96,0.00,,,0.00,Wunderground v.1.15,2013-05-19 04:11:00,
2013-05-19 00:13:00,58.8,57.7,30.22,ESE,102,3.0,3.0,96,0.00,,,0.00,Wunderground v.1.15,2013-05-19 04:13:00,
2013-05-19 00:19:00,58.8,57.7,30.22,East,98,2.0,5.0,96,0.00,,,0.00,Wunderground v.1.15,2013-05-19 04:19:00,
2013-05-19 00:25:00,58.8,57.7,30.22,NE,38,2.0,5.0,96,0.00,,,0.00,Wunderground v.1.15,2013-05-19 04:25:00,
2013-05-19 00:30:00,58.9,57.8,30.22,ENE,68,3.0,3.0,96,0.00,,,0.00,Wunderground v.1.15,2013-05-19 04:30:00,
2013-05-19 00:36:00,58.9,57.8,30.21,NE,50,4.0,5.0,96,0.00,,,0.00,Wunderground v.1.15,2013-05-19 04:36:00,
2013-05-19 00:41:00,58.9,57.8,30.21,NE,40,4.0,8.0,96,0.00,,,0.00,Wunderground v.1.15,2013-05-19 04:41:00,
2013-05-19 00:47:00,58.9,57.8,30.21,ENE,58,6.0,8.0,96,0.00,,,0.00,Wunderground v.1.15,2013-05-19 04:47:00,
2013-05-19 00:53:00,58.9,57.8,30.22,ESE,111,3.0,5.0,96,0.00,,,0.00,Wunderground v.1.15,2013-05-19 04:53:00,
2013-05-19 00:58:00,58.9,57.8,30.22,ENE,63,3.0,5.0,96,0.00,,,0.00,Wunderground v.1.15,2013-05-19 04:58:00,
2013-05-19 01:04:00,58.9,57.8,30.21,ENE,63,1.0,2.0,96,0.00,,,0.00,Wunderground v.1.15,2013-05-19 05:04:00,
2013-05-19 01:10:00,59.0,57.9,30.21,ENE,69,0.0,2.0,96,0.00,,,0.00,Wunderground v.1.15,2013-05-19 05:10:00,
2013-05-19 01:15:00,59.0,57.9,30.21,ENE,57,1.0,2.0,96,0.00,,,0.00,Wunderground v.1.15,2013-05-19 05:15:00,
2013-05-19 01:21:00,59.0,58.2,30.21,East,83,0.0,1.0,97,0.00,,,0.00,Wunderground v.1.15,2013-05-19 05:21:00,
2013-05-19 01:27:00,59.0,58.2,30.21,ENE,73,0.0,2.0,97,0.00,,,0.00,Wunderground v.1.15,2013-05-19 05:27:00,
2013-05-19 01:32:00,59.0,58.2,30.20,East,87,3.0,3.0,97,0.00,,,0.00,Wunderground v.1.15,2013-05-19 05:32:00,
2013-05-19 01:37:00,59.0,58.2,30.20,East,86,2.0,3.0,97,0.00,,,0.00,Wunderground v.1.15,2013-05-19 05:37:00,
2013-05-19 01:42:00,58.9,58.1,30.20,ENE,67,0.0,2.0,97,0.00,,,0.00,Wunderground v.1.15,2013-05-19 05:42:00,
2013-05-19 01:48:00,59.0,58.2,30.20,ENE,75,3.0,3.0,97,0.00,,,0.00,Wunderground v.1.15,2013-05-19 05:48:00,
2013-05-19 01:53:00,59.0,58.2,30.20,ENE,78,2.0,2.0,97,0.00,,,0.00,Wunderground v.1.15,2013-05-19 05:53:00,
2013-05-19 01:58:00,58.9,58.1,30.20,ENE,78,0.0,2.0,97,0.00,,,0.00,Wunderground v.1.15,2013-05-19 05:58:00,
2013-05-19 02:04:00,59.0,58.2,30.20,ENE,60,2.0,3.0,97,0.00,,,0.00,Wunderground v.1.15,2013-05-19 06:04:00,
2013-05-19 02:08:00,59.0,58.2,30.20,ENE,78,1.0,5.0,97,0.00,,,0.00,Wunderground v.1.15,2013-05-19 06:08:00,
2013-05-19 02:14:00,59.0,58.2,30.20,NE,46,3.0,7.0,97,0.00,,,0.00,Wunderground v.1.15,2013-05-19 06:14:00,
2013-05-19 02:19:00,59.0,58.2,30.20,NE,46,1.0,7.0,97,0.00,,,0.00,Wunderground v.1.15,2013-05-19 06:19:00,
2013-05-19 02:24:00,59.0,58.2,30.20,East,86,2.0,6.0,97,0.00,,,0.00,Wunderground v.1.15,2013-05-19 06:24:00,
2013-05-19 02:29:00,59.0,58.2,30.20,NE,38,0.0,6.0,97,0.00,,,0.00,Wunderground v.1.15,2013-05-19 06:29:00,
2013-05-19 02:34:00,58.9,58.1,30.20,NE,48,2.0,4.0,97,0.00,,,0.00,Wunderground v.1.15,2013-05-19 06:34:00,
2013-05-19 02:39:00,58.9,58.1,30.19,East,82,2.0,4.0,97,0.00,,,0.00,Wunderground v.1.15,2013-05-19 06:39:00,
2013-05-19 02:44:00,58.9,58.1,30.19,East,82,0.0,3.0,97,0.00,,,0.00,Wunderground v.1.15,2013-05-19 06:44:00,
2013-05-19 02:49:00,58.8,58.0,30.19,East,82,1.0,3.0,97,0.00,,,0.00,Wunderground v.1.15,2013-05-19 06:49:00,
2013-05-19 02:54:00,58.9,58.1,30.19,East,97,3.0,7.0,97,0.00,,,0.00,Wunderground v.1.15,2013-05-19 06:54:00,
2013-05-19 02:59:00,58.8,58.0,30.19,ENE,76,1.0,7.0,97,0.00,,,0.00,Wunderground v.1.15,2013-05-19 06:59:00,
2013-05-19 03:04:00,58.8,58.0,30.19,SE,125,2.0,3.0,97,0.00,,,0.00,Wunderground v.1.15,2013-05-19 07:04:00,
2013-05-19 03:09:00,58.8,58.0,30.19,ENE,58,1.0,6.0,97,0.00,,,0.00,Wunderground v.1.15,2013-05-19 07:09:00,
2013-05-19 03:14:00,58.8,58.0,30.19,ENE,58,3.0,5.0,97,0.00,,,0.00,Wunderground v.1.15,2013-05-19 07:14:00,
2013-05-19 03:19:00,58.9,58.1,30.19,ENE,57,3.0,5.0,97,0.00,,,0.00,Wunderground v.1.15,2013-05-19 07:19:00,
2013-05-19 03:24:00,58.8,58.0,30.19,ENE,73,1.0,5.0,97,0.00,,,0.00,Wunderground v.1.15,2013-05-19 07:24:00,
2013-05-19 03:29:00,58.9,58.1,30.18,ENE,67,0.0,5.0,97,0.00,,,0.00,Wunderground v.1.15,2013-05-19 07:29:00,
2013-05-19 03:34:00,58.9,58.1,30.18,ENE,69,2.0,2.0,97,0.00,,,0.00,Wunderground v.1.15,2013-05-19 07:34:00,
2013-05-19 03:39:00,58.9,58.1,30.18,East,79,2.0,3.0,97,0.00,,,0.00,Wunderground v.1.15,2013-05-19 07:39:00,
2013-05-19 03:44:00,58.9,58.1,30.18,East,79,1.0,3.0,97,0.00,,,0.00,Wunderground v.1.15,2013-05-19 07:44:00,
2013-05-19 03:49:00,59.0,58.2,30.18,East,79,0.0,3.0,97,0.00,,,0.00,Wunderground v.1.15,2013-05-19 07:49:00,
2013-05-19 03:54:00,59.0,58.2,30.18,East,80,2.0,3.0,97,0.00,,,0.00,Wunderground v.1.15,2013-05-19 07:54:00,
2013-05-19 03:59:00,59.0,58.2,30.18,ENE,59,2.0,3.0,97,0.00,,,0.00,Wunderground v.1.15,2013-05-19 07:59:00,
2013-05-19 04:04:00,59.1,58.2,30.18,ENE,59,1.0,3.0,97,0.00,,,0.00,Wunderground v.1.15,2013-05-19 08:04:00,
2013-05-19 04:09:00,59.1,58.2,30.18,ENE,69,2.0,5.0,97,0.00,,,0.00,Wunderground v.1.15,2013-05-19 08:09:00,
2013-05-19 04:14:00,59.1,58.2,30.18,ENE,61,2.0,3.0,97,0.00,,,0.00,Wunderground v.1.15,2013-05-19 08:14:00,
2013-05-19 04:19:00,59.1,58.2,30.18,East,81,3.0,4.0,97,0.00,,,0.00,Wunderground v.1.15,2013-05-19 08:19:00,
2013-05-19 04:24:00,59.1,58.2,30.18,ENE,78,2.0,3.0,97,0.00,,,0.00,Wunderground v.1.15,2013-05-19 08:24:00,
2013-05-19 04:29:00,59.2,58.3,30.18,ENE,78,1.0,3.0,97,0.00,,,0.00,Wunderground v.1.15,2013-05-19 08:29:00,
2013-05-19 04:34:00,59.2,58.3,30.18,ENE,78,2.0,3.0,97,0.00,,,0.00,Wunderground v.1.15,2013-05-19 08:34:00,
2013-05-19 04:39:00,59.2,58.3,30.18,ENE,78,2.0,3.0,97,0.00,,,0.00,Wunderground v.1.15,2013-05-19 08:39:00,
2013-05-19 04:44:00,59.3,58.4,30.18,ENE,78,0.0,2.0,97,0.00,,,0.00,Wunderground v.1.15,2013-05-19 08:44:00,
2013-05-19 04:49:00,59.2,58.3,30.17,ENE,78,1.0,3.0,97,0.00,,,0.00,Wunderground v.1.15,2013-05-19 08:49:00,
2013-05-19 04:54:00,59.3,58.4,30.16,ENE,78,2.0,2.0,97,0.00,,,0.00,Wunderground v.1.15,2013-05-19 08:54:00,
2013-05-19 04:59:00,59.3,58.4,30.17,ENE,78,2.0,3.0,97,0.00,,,0.00,Wunderground v.1.15,2013-05-19 08:59:00,
2013-05-19 05:04:00,59.4,58.5,30.17,ENE,78,1.0,3.0,97,0.00,,,0.00,Wunderground v.1.15,2013-05-19 09:04:00,
2013-05-19 05:09:00,59.3,58.4,30.17,ENE,67,1.0,3.0,97,0.00,,,0.00,Wunderground v.1.15,2013-05-19 09:09:00,
2013-05-19 05:14:00,59.4,58.5,30.17,ENE,65,3.0,3.0,97,0.00,,,0.00,Wunderground v.1.15,2013-05-19 09:14:00,
2013-05-19 05:19:00,59.4,58.5,30.17,NNE,23,1.0,1.0,97,0.00,,,0.00,Wunderground v.1.15,2013-05-19 09:19:00,
2013-05-19 05:25:00,59.4,58.5,30.17,ENE,68,2.0,3.0,97,0.00,,,0.00,Wunderground v.1.15,2013-05-19 09:25:00,
2013-05-19 05:30:00,59.4,58.5,30.17,ENE,68,0.0,1.0,97,0.00,,,0.00,Wunderground v.1.15,2013-05-19 09:30:00,
2013-05-19 05:35:00,59.4,58.5,30.17,East,96,2.0,3.0,97,0.00,,,0.00,Wunderground v.1.15,2013-05-19 09:35:00,
2013-05-19 05:40:00,59.5,58.6,30.17,East,96,0.0,0.0,97,0.00,,,0.00,Wunderground v.1.15,2013-05-19 09:40:00,
2013-05-19 05:45:00,59.5,58.9,30.18,East,96,1.0,2.0,98,0.00,,,0.00,Wunderground v.1.15,2013-05-19 09:45:00,
2013-05-19 05:50:00,59.5,58.9,30.18,East,90,0.0,1.0,98,0.00,,,0.00,Wunderground v.1.15,2013-05-19 09:50:00,
2013-05-19 05:55:00,59.5,58.9,30.18,East,90,0.0,2.0,98,0.00,,,0.00,Wunderground v.1.15,2013-05-19 09:55:00,
2013-05-19 06:00:00,59.6,59.0,30.18,East,90,1.0,1.0,98,0.00,,,0.00,Wunderground v.1.15,2013-05-19 10:00:00,
2013-05-19 06:05:00,59.6,59.0,30.18,East,90,1.0,2.0,98,0.00,,,0.00,Wunderground v.1.15,2013-05-19 10:05:00,
2013-05-19 06:10:00,59.6,59.0,30.17,East,90,2.0,2.0,98,0.00,,,0.00,Wunderground v.1.15,2013-05-19 10:10:00,
2013-05-19 06:15:00,59.6,59.0,30.17,East,90,2.0,3.0,98,0.00,,,0.00,Wunderground v.1.15,2013-05-19 10:15:00,
2013-05-19 06:20:00,59.6,59.0,30.17,East,90,1.0,1.0,98,0.00,,,0.00,Wunderground v.1.15,2013-05-19 10:20:00,
2013-05-19 06:25:00,59.7,59.1,30.18,East,82,0.0,3.0,98,0.00,,,0.00,Wunderground v.1.15,2013-05-19 10:25:00,
2013-05-19 06:30:00,59.8,59.2,30.18,East,82,0.0,1.0,98,0.00,,,0.00,Wunderground v.1.15,2013-05-19 10:30:00,
2013-05-19 06:35:00,59.8,59.2,30.18,ENE,65,1.0,3.0,98,0.00,,,0.00,Wunderground v.1.15,2013-05-19 10:35:00,
2013-05-19 06:40:00,59.8,59.2,30.18,ENE,57,2.0,3.0,98,0.00,,,0.00,Wunderground v.1.15,2013-05-19 10:40:00,
2013-05-19 06:45:00,59.8,59.2,30.18,NE,44,2.0,5.0,98,0.00,,,0.00,Wunderground v.1.15,2013-05-19 10:45:00,
2013-05-19 06:50:00,59.9,59.3,30.18,ENE,70,2.0,3.0,98,0.00,,,0.00,Wunderground v.1.15,2013-05-19 10:50:00,
2013-05-19 06:55:00,59.9,59.3,30.19,ENE,76,1.0,4.0,98,0.00,,,0.00,Wunderground v.1.15,2013-05-19 10:55:00,
2013-05-19 07:00:00,60.0,59.4,30.19,ENE,76,0.0,1.0,98,0.00,,,0.00,Wunderground v.1.15,2013-05-19 11:00:00,
2013-05-19 07:05:00,60.0,59.4,30.19,ENE,76,1.0,3.0,98,0.00,,,0.00,Wunderground v.1.15,2013-05-19 11:05:00,
2013-05-19 07:10:00,60.0,59.4,30.19,East,82,0.0,1.0,98,0.00,,,0.00,Wunderground v.1.15,2013-05-19 11:10:00,
2013-05-19 07:15:00,60.2,59.6,30.19,East,82,1.0,3.0,98,0.00,,,0.00,Wunderground v.1.15,2013-05-19 11:15:00,
2013-05-19 07:20:00,60.2,59.6,30.19,ENE,78,1.0,2.0,98,0.00,,,0.00,Wunderground v.1.15,2013-05-19 11:20:00,
2013-05-19 07:25:00,60.2,59.6,30.19,ENE,78,0.0,3.0,98,0.00,,,0.00,Wunderground v.1.15,2013-05-19 11:25:00,
2013-05-19 07:30:00,60.2,59.6,30.19,ENE,78,2.0,2.0,98,0.00,,,0.00,Wunderground v.1.15,2013-05-19 11:30:00,
2013-05-19 07:35:00,60.3,59.7,30.20,ENE,78,0.0,2.0,98,0.00,,,0.00,Wunderground v.1.15,2013-05-19 11:35:00,
2013-05-19 07:40:00,60.4,59.8,30.20,ENE,78,0.0,0.0,98,0.00,,,0.00,Wunderground v.1.15,2013-05-19 11:40:00,
2013-05-19 07:45:00,60.6,60.0,30.20,ENE,78,0.0,0.0,98,0.00,,,0.00,Wunderground v.1.15,2013-05-19 11:45:00,
2013-05-19 07:51:00,60.6,60.0,30.20,ENE,78,0.0,0.0,98,0.00,,,0.00,Wunderground v.1.15,2013-05-19 11:51:00,
2013-05-19 07:56:00,60.7,60.1,30.20,ENE,78,0.0,0.0,98,0.00,,,0.00,Wunderground v.1.15,2013-05-19 11:56:00,
2013-05-19 08:01:00,60.6,60.0,30.20,ENE,78,0.0,0.0,98,0.00,,,0.00,Wunderground v.1.15,2013-05-19 12:01:00,
2013-05-19 08:06:00,60.8,60.2,30.21,ENE,78,0.0,0.0,98,0.00,,,0.00,Wunderground v.1.15,2013-05-19 12:06:00,
2013-05-19 08:11:00,60.9,60.3,30.21,ENE,78,0.0,0.0,98,0.00,,,0.00,Wunderground v.1.15,2013-05-19 12:11:00,
2013-05-19 08:16:00,61.1,60.5,30.21,ENE,78,0.0,0.0,98,0.00,,,0.01,Wunderground v.1.15,2013-05-19 12:16:00,
2013-05-19 08:21:00,60.9,60.3,30.21,ENE,78,0.0,0.0,98,0.00,,,0.01,Wunderground v.1.15,2013-05-19 12:21:00,
2013-05-19 08:27:00,61.1,60.5,30.21,ENE,78,0.0,1.0,98,0.00,,,0.01,Wunderground v.1.15,2013-05-19 12:27:00,
2013-05-19 08:32:00,60.9,60.3,30.21,ENE,78,0.0,0.0,98,0.00,,,0.01,Wunderground v.1.15,2013-05-19 12:32:00,
2013-05-19 08:37:00,60.7,60.1,30.21,ENE,78,0.0,3.0,98,0.00,,,0.01,Wunderground v.1.15,2013-05-19 12:37:00,
2013-05-19 08:42:00,60.8,60.2,30.22,ENE,78,0.0,1.0,98,0.00,,,0.01,Wunderground v.1.15,2013-05-19 12:42:00,
2013-05-19 08:47:00,60.8,60.2,30.22,ENE,78,0.0,1.0,98,0.00,,,0.01,Wunderground v.1.15,2013-05-19 12:47:00,
2013-05-19 08:52:00,60.9,60.3,30.22,ENE,78,0.0,0.0,98,0.00,,,0.01,Wunderground v.1.15,2013-05-19 12:52:00,
2013-05-19 08:57:00,61.0,60.4,30.22,ENE,78,0.0,1.0,98,0.00,,,0.01,Wunderground v.1.15,2013-05-19 12:57:00,
2013-05-19 09:02:00,61.1,60.5,30.22,ENE,78,0.0,0.0,98,0.00,,,0.01,Wunderground v.1.15,2013-05-19 13:02:00,
2013-05-19 09:07:00,61.1,60.5,30.22,ENE,78,0.0,0.0,98,0.00,,,0.01,Wunderground v.1.15,2013-05-19 13:07:00,
2013-05-19 09:12:00,61.2,60.6,30.22,ENE,78,0.0,0.0,98,0.00,,,0.01,Wunderground v.1.15,2013-05-19 13:12:00,
2013-05-19 09:17:00,61.4,60.8,30.22,ENE,78,0.0,2.0,98,0.00,,,0.01,Wunderground v.1.15,2013-05-19 13:17:00,
2013-05-19 09:22:00,61.3,60.7,30.22,ENE,78,2.0,2.0,98,0.00,,,0.01,Wunderground v.1.15,2013-05-19 13:22:00,
2013-05-19 09:27:00,61.4,60.8,30.22,ENE,78,0.0,2.0,98,0.00,,,0.01,Wunderground v.1.15,2013-05-19 13:27:00,
2013-05-19 09:32:00,61.4,60.8,30.22,ENE,78,1.0,2.0,98,0.00,,,0.01,Wunderground v.1.15,2013-05-19 13:32:00,
2013-05-19 09:37:00,61.5,60.9,30.22,ENE,59,1.0,5.0,98,0.00,,,0.01,Wunderground v.1.15,2013-05-19 13:37:00,
2013-05-19 09:42:00,61.6,61.0,30.22,ENE,66,3.0,3.0,98,0.00,,,0.01,Wunderground v.1.15,2013-05-19 13:42:00,
2013-05-19 09:47:00,61.7,61.1,30.22,ENE,65,3.0,5.0,98,0.00,,,0.01,Wunderground v.1.15,2013-05-19 13:47:00,
2013-05-19 09:52:00,61.8,61.2,30.22,ENE,65,1.0,3.0,98,0.00,,,0.01,Wunderground v.1.15,2013-05-19 13:52:00,
2013-05-19 09:57:00,61.8,61.2,30.22,ENE,73,1.0,5.0,98,0.00,,,0.01,Wunderground v.1.15,2013-05-19 13:57:00,
2013-05-19 10:02:00,62.1,61.5,30.22,ENE,73,0.0,3.0,98,0.00,,,0.01,Wunderground v.1.15,2013-05-19 14:02:00,
2013-05-19 10:07:00,62.0,61.4,30.22,ENE,73,1.0,3.0,98,0.00,,,0.01,Wunderground v.1.15,2013-05-19 14:07:00,
2013-05-19 10:12:00,62.3,61.7,30.22,NE,46,2.0,5.0,98,0.00,,,0.01,Wunderground v.1.15,2013-05-19 14:12:00,
2013-05-19 10:17:00,62.3,61.7,30.22,NE,46,1.0,5.0,98,0.00,,,0.01,Wunderground v.1.15,2013-05-19 14:17:00,
2013-05-19 10:22:00,62.6,62.0,30.21,East,86,0.0,3.0,98,0.00,,,0.01,Wunderground v.1.15,2013-05-19 14:22:00,
2013-05-19 10:27:00,62.9,62.3,30.21,ENE,67,3.0,4.0,98,0.00,,,0.01,Wunderground v.1.15,2013-05-19 14:27:00,
2013-05-19 10:32:00,62.7,62.1,30.21,ENE,63,3.0,5.0,98,0.00,,,0.01,Wunderground v.1.15,2013-05-19 14:32:00,
2013-05-19 10:37:00,63.0,62.4,30.21,NE,53,4.0,6.0,98,0.00,,,0.01,Wunderground v.1.15,2013-05-19 14:37:00,
2013-05-19 10:42:00,63.3,62.7,30.21,NE,43,2.0,6.0,98,0.00,,,0.01,Wunderground v.1.15,2013-05-19 14:42:00,
2013-05-19 10:47:00,63.4,62.8,30.21,NE,49,2.0,7.0,98,0.00,,,0.01,Wunderground v.1.15,2013-05-19 14:47:00,
2013-05-19 10:52:00,63.5,62.9,30.21,ENE,69,2.0,6.0,98,0.00,,,0.01,Wunderground v.1.15,2013-05-19 14:52:00,
2013-05-19 10:57:00,63.6,63.0,30.21,NE,53,2.0,7.0,98,0.00,,,0.01,Wunderground v.1.15,2013-05-19 14:57:00,
2013-05-19 11:02:00,63.9,63.3,30.21,SE,128,1.0,5.0,98,0.00,,,0.01,Wunderground v.1.15,2013-05-19 15:02:00,
2013-05-19 11:07:00,64.0,63.4,30.22,SE,128,0.0,5.0,98,0.00,,,0.01,Wunderground v.1.15,2013-05-19 15:07:00,
2013-05-19 11:12:00,63.9,63.3,30.22,SE,131,2.0,3.0,98,0.00,,,0.01,Wunderground v.1.15,2013-05-19 15:12:00,
2013-05-19 11:17:00,63.9,63.3,30.22,SE,136,0.0,3.0,98,0.00,,,0.01,Wunderground v.1.15,2013-05-19 15:17:00,
2013-05-19 11:22:00,63.9,63.3,30.22,ESE,117,1.0,3.0,98,0.00,,,0.01,Wunderground v.1.15,2013-05-19 15:22:00,
2013-05-19 11:27:00,64.1,63.5,30.21,ESE,117,1.0,3.0,98,0.00,,,0.01,Wunderground v.1.15,2013-05-19 15:27:00,
2013-05-19 11:32:00,64.3,63.7,30.21,ESE,117,0.0,1.0,98,0.00,,,0.01,Wunderground v.1.15,2013-05-19 15:32:00,
2013-05-19 11:37:00,64.0,63.4,30.22,ESE,117,0.0,2.0,98,0.00,,,0.01,Wunderground v.1.15,2013-05-19 15:37:00,
2013-05-19 11:42:00,64.1,63.5,30.21,ESE,117,1.0,2.0,98,0.00,,,0.01,Wunderground v.1.15,2013-05-19 15:42:00,
2013-05-19 11:47:00,64.3,63.7,30.21,ESE,117,0.0,2.0,98,0.00,,,0.01,Wunderground v.1.15,2013-05-19 15:47:00,
2013-05-19 11:52:00,64.4,63.8,30.21,ESE,117,0.0,1.0,98,0.00,,,0.01,Wunderground v.1.15,2013-05-19 15:52:00,
2013-05-19 11:58:00,64.3,63.7,30.21,NE,38,5.0,5.0,98,0.00,,,0.01,Wunderground v.1.15,2013-05-19 15:58:00,
2013-05-19 12:03:00,64.1,63.5,30.21,ENE,73,1.0,5.0,98,0.00,,,0.01,Wunderground v.1.15,2013-05-19 16:03:00,
2013-05-19 12:08:00,64.4,63.8,30.21,NE,54,3.0,5.0,98,0.00,,,0.01,Wunderground v.1.15,2013-05-19 16:08:00,
2013-05-19 12:13:00,64.5,63.9,30.20,NE,52,2.0,3.0,98,0.00,,,0.01,Wunderground v.1.15,2013-05-19 16:13:00,
2013-05-19 12:18:00,64.7,64.1,30.21,NNE,24,1.0,3.0,98,0.00,,,0.01,Wunderground v.1.15,2013-05-19 16:18:00,
2013-05-19 12:23:00,65.1,64.5,30.20,NNE,25,0.0,3.0,98,0.00,,,0.01,Wunderground v.1.15,2013-05-19 16:23:00,
2013-05-19 12:28:00,64.9,64.0,30.20,ENE,63,0.0,4.0,97,0.00,,,0.01,Wunderground v.1.15,2013-05-19 16:28:00,
2013-05-19 12:33:00,64.9,64.0,30.20,SE,140,4.0,5.0,97,0.00,,,0.01,Wunderground v.1.15,2013-05-19 16:33:00,
2013-05-19 12:38:00,64.8,63.9,30.20,ESE,111,3.0,5.0,97,0.00,,,0.01,Wunderground v.1.15,2013-05-19 16:38:00,
2013-05-19 12:43:00,64.7,63.8,30.20,ENE,73,0.0,2.0,97,0.00,,,0.01,Wunderground v.1.15,2013-05-19 16:43:00,
2013-05-19 12:48:00,65.0,64.1,30.20,ENE,73,0.0,2.0,97,0.00,,,0.01,Wunderground v.1.15,2013-05-19 16:48:00,
2013-05-19 12:53:00,65.3,64.4,30.20,ENE,73,2.0,3.0,97,0.00,,,0.01,Wunderground v.1.15,2013-05-19 16:53:00,
2013-05-19 12:58:00,65.6,64.7,30.20,ENE,73,0.0,3.0,97,0.00,,,0.01,Wunderground v.1.15,2013-05-19 16:58:00,
2013-05-19 13:03:00,65.5,64.6,30.19,ENE,73,2.0,2.0,97,0.00,,,0.01,Wunderground v.1.15,2013-05-19 17:03:00,
2013-05-19 13:08:00,65.8,64.9,30.19,ENE,73,0.0,2.0,97,0.00,,,0.01,Wunderground v.1.15,2013-05-19 17:08:00,
2013-05-19 13:13:00,65.8,64.9,30.19,ENE,73,1.0,2.0,97,0.00,,,0.01,Wunderground v.1.15,2013-05-19 17:13:00,
2013-05-19 13:18:00,65.7,64.5,30.19,ENE,73,2.0,2.0,96,0.00,,,0.01,Wunderground v.1.15,2013-05-19 17:18:00,
2013-05-19 13:23:00,65.8,64.6,30.19,ENE,73,0.0,3.0,96,0.00,,,0.01,Wunderground v.1.15,2013-05-19 17:23:00,
2013-05-19 13:28:00,66.2,65.0,30.19,ENE,73,0.0,3.0,96,0.00,,,0.01,Wunderground v.1.15,2013-05-19 17:28:00,
2013-05-19 13:33:00,66.3,65.1,30.18,SE,140,0.0,3.0,96,0.00,,,0.01,Wunderground v.1.15,2013-05-19 17:33:00,
2013-05-19 13:38:00,66.2,64.7,30.18,SE,140,0.0,3.0,95,0.00,,,0.01,Wunderground v.1.15,2013-05-19 17:38:00,
2013-05-19 13:44:00,66.4,64.9,30.18,SE,140,2.0,2.0,95,0.00,,,0.01,Wunderground v.1.15,2013-05-19 17:44:00,
2013-05-19 13:49:00,66.4,64.9,30.18,SE,140,0.0,2.0,95,0.00,,,0.01,Wunderground v.1.15,2013-05-19 17:49:00,
2013-05-19 13:54:00,66.4,64.6,30.18,NNE,26,3.0,3.0,94,0.00,,,0.01,Wunderground v.1.15,2013-05-19 17:54:00,
2013-05-19 13:59:00,66.3,64.5,30.17,NNE,26,2.0,3.0,94,0.00,,,0.01,Wunderground v.1.15,2013-05-19 17:59:00,
2013-05-19 14:04:00,66.9,65.4,30.17,East,92,3.0,4.0,95,0.00,,,0.01,Wunderground v.1.15,2013-05-19 18:04:00,
2013-05-19 14:09:00,67.7,66.2,30.17,NE,48,0.0,4.0,95,0.00,,,0.01,Wunderground v.1.15,2013-05-19 18:09:00,
2013-05-19 14:14:00,68.2,66.1,30.17,ENE,65,3.0,3.0,93,0.00,,,0.01,Wunderground v.1.15,2013-05-19 18:14:00,
2013-05-19 14:19:00,69.0,66.9,30.16,NE,40,1.0,4.0,93,0.00,,,0.01,Wunderground v.1.15,2013-05-19 18:19:00,
2013-05-19 14:24:00,68.6,65.5,30.16,ENE,76,1.0,5.0,90,0.00,,,0.01,Wunderground v.1.15,2013-05-19 18:24:00,
2013-05-19 14:29:00,69.1,66.0,30.16,NE,51,1.0,5.0,90,0.00,,,0.01,Wunderground v.1.15,2013-05-19 18:29:00,
2013-05-19 14:34:00,69.3,66.2,30.16,ESE,120,2.0,7.0,90,0.00,,,0.01,Wunderground v.1.15,2013-05-19 18:34:00,
2013-05-19 14:39:00,69.6,66.5,30.15,NNW,340,1.0,7.0,90,0.00,,,0.01,Wunderground v.1.15,2013-05-19 18:39:00,
2013-05-19 14:44:00,70.3,67.2,30.15,NNW,340,0.0,2.0,90,0.00,,,0.01,Wunderground v.1.15,2013-05-19 18:44:00,
2013-05-19 14:49:00,69.9,66.2,30.15,ENE,61,2.0,4.0,88,0.00,,,0.01,Wunderground v.1.15,2013-05-19 18:49:00,
2013-05-19 14:54:00,70.3,66.9,30.15,ENE,63,0.0,3.0,89,0.00,,,0.01,Wunderground v.1.15,2013-05-19 18:54:00,
2013-05-19 14:59:00,70.9,66.5,30.15,East,97,0.0,3.0,86,0.00,,,0.01,Wunderground v.1.15,2013-05-19 18:59:00,
2013-05-19 15:04:00,72.1,68.0,30.15,SE,128,2.0,3.0,87,0.00,,,0.01,Wunderground v.1.15,2013-05-19 19:04:00,
2013-05-19 15:09:00,72.3,67.5,30.14,ENE,57,8.0,8.0,85,0.00,,,0.01,Wunderground v.1.15,2013-05-19 19:09:00,
2013-05-19 15:14:00,71.7,67.3,30.14,ENE,65,0.0,2.0,86,0.00,,,0.01,Wunderground v.1.15,2013-05-19 19:14:00,
2013-05-19 15:19:00,71.2,66.1,30.14,East,80,1.0,6.0,84,0.00,,,0.01,Wunderground v.1.15,2013-05-19 19:19:00,
2013-05-19 15:24:00,71.9,67.1,30.14,ENE,67,3.0,5.0,85,0.00,,,0.01,Wunderground v.1.15,2013-05-19 19:24:00,
2013-05-19 15:29:00,72.5,67.0,30.14,ESE,117,1.0,5.0,83,0.00,,,0.01,Wunderground v.1.15,2013-05-19 19:29:00,
2013-05-19 15:34:00,71.3,65.9,30.14,East,100,1.0,3.0,83,0.00,,,0.01,Wunderground v.1.15,2013-05-19 19:34:00,
2013-05-19 15:39:00,71.4,66.3,30.14,East,100,1.0,3.0,84,0.00,,,0.01,Wunderground v.1.15,2013-05-19 19:39:00,
2013-05-19 15:44:00,72.0,67.2,30.13,SSW,194,2.0,3.0,85,0.00,,,0.01,Wunderground v.1.15,2013-05-19 19:44:00,
2013-05-19 15:49:00,72.3,67.2,30.13,SSW,194,1.0,3.0,84,0.00,,,0.01,Wunderground v.1.15,2013-05-19 19:49:00,
2013-05-19 15:54:00,72.0,66.6,30.13,SSW,205,1.0,3.0,83,0.00,,,0.01,Wunderground v.1.15,2013-05-19 19:54:00,
2013-05-19 15:59:00,72.0,66.6,30.13,SSW,204,0.0,4.0,83,0.00,,,0.01,Wunderground v.1.15,2013-05-19 19:59:00,
2013-05-19 16:04:00,72.5,67.7,30.13,SSW,204,0.0,2.0,85,0.00,,,0.01,Wunderground v.1.15,2013-05-19 20:04:00,
2013-05-19 16:09:00,72.9,67.4,30.12,SSW,206,0.0,2.0,83,0.00,,,0.01,Wunderground v.1.15,2013-05-19 20:09:00,
2013-05-19 16:14:00,73.3,66.8,30.12,ESE,109,4.0,5.0,80,0.00,,,0.01,Wunderground v.1.15,2013-05-19 20:14:00,
2013-05-19 16:19:00,73.8,68.0,30.12,ESE,123,1.0,5.0,82,0.00,,,0.01,Wunderground v.1.15,2013-05-19 20:19:00,
2013-05-19 16:24:00,74.1,67.5,30.12,South,176,1.0,4.0,80,0.00,,,0.01,Wunderground v.1.15,2013-05-19 20:24:00,
2013-05-19 16:29:00,73.7,66.4,30.12,ESE,112,0.0,4.0,78,0.00,,,0.01,Wunderground v.1.15,2013-05-19 20:29:00,
2013-05-19 16:34:00,74.1,67.2,30.12,SW,216,1.0,4.0,79,0.00,,,0.01,Wunderground v.1.15,2013-05-19 20:34:00,
2013-05-19 16:39:00,74.0,67.4,30.11,ENE,65,1.0,4.0,80,0.00,,,0.01,Wunderground v.1.15,2013-05-19 20:39:00,
2013-05-19 16:44:00,74.6,67.3,30.12,East,82,0.0,2.0,78,0.00,,,0.01,Wunderground v.1.15,2013-05-19 20:44:00,
2013-05-19 16:49:00,75.2,66.7,30.11,South,183,0.0,1.0,75,0.00,,,0.01,Wunderground v.1.15,2013-05-19 20:49:00,
2013-05-19 16:54:00,74.6,66.1,30.11,NE,44,1.0,6.0,75,0.00,,,0.01,Wunderground v.1.15,2013-05-19 20:54:00,
2013-05-19 16:59:00,74.4,66.0,30.12,SSW,209,0.0,1.0,75,0.00,,,0.01,Wunderground v.1.15,2013-05-19 20:59:00,
2013-05-19 17:05:00,73.9,66.2,30.12,SW,214,0.0,4.0,77,0.00,,,0.01,Wunderground v.1.15,2013-05-19 21:05:00,
2013-05-19 17:10:00,73.5,65.5,30.12,SW,215,0.0,1.0,76,0.00,,,0.01,Wunderground v.1.15,2013-05-19 21:10:00,
2013-05-19 17:15:00,73.8,66.5,30.11,SW,215,0.0,2.0,78,0.00,,,0.01,Wunderground v.1.15,2013-05-19 21:15:00,
2013-05-19 17:20:00,73.9,65.9,30.11,SSW,213,0.0,0.0,76,0.00,,,0.01,Wunderground v.1.15,2013-05-19 21:20:00,
2013-05-19 17:25:00,74.5,66.8,30.11,SSW,213,0.0,2.0,77,0.00,,,0.01,Wunderground v.1.15,2013-05-19 21:25:00,
2013-05-19 17:30:00,74.7,66.2,30.12,NNE,13,0.0,1.0,75,0.00,,,0.01,Wunderground v.1.15,2013-05-19 21:30:00,
2013-05-19 17:35:00,74.8,66.0,30.11,NNE,13,0.0,2.0,74,0.00,,,0.01,Wunderground v.1.15,2013-05-19 21:35:00,
2013-05-19 17:40:00,74.4,66.3,30.11,NNE,13,1.0,1.0,76,0.00,,,0.01,Wunderground v.1.15,2013-05-19 21:40:00,
2013-05-19 17:45:00,74.2,66.1,30.11,NE,55,0.0,2.0,76,0.00,,,0.01,Wunderground v.1.15,2013-05-19 21:45:00,
2013-05-19 17:50:00,74.4,66.3,30.11,ENE,57,0.0,1.0,76,0.00,,,0.01,Wunderground v.1.15,2013-05-19 21:50:00,
2013-05-19 17:55:00,74.6,66.5,30.11,ENE,57,0.0,1.0,76,0.00,,,0.01,Wunderground v.1.15,2013-05-19 21:55:00,
2013-05-19 18:00:00,74.9,66.4,30.11,SSW,209,1.0,1.0,75,0.00,,,0.01,Wunderground v.1.15,2013-05-19 22:00:00,
2013-05-19 18:05:00,75.4,66.9,30.10,SSW,209,1.0,2.0,75,0.00,,,0.01,Wunderground v.1.15,2013-05-19 22:05:00,
2013-05-19 18:10:00,75.6,67.1,30.10,SSW,207,1.0,2.0,75,0.00,,,0.01,Wunderground v.1.15,2013-05-19 22:10:00,
2013-05-19 18:15:00,75.1,66.2,30.10,North,359,1.0,2.0,74,0.00,,,0.01,Wunderground v.1.15,2013-05-19 22:15:00,
2013-05-19 18:20:00,74.6,66.5,30.10,NNE,21,1.0,1.0,76,0.00,,,0.01,Wunderground v.1.15,2013-05-19 22:20:00,
2013-05-19 18:25:00,74.4,66.7,30.10,West,276,2.0,2.0,77,0.00,,,0.01,Wunderground v.1.15,2013-05-19 22:25:00,
2013-05-19 18:30:00,74.2,66.1,30.10,NNE,27,1.0,1.0,76,0.00,,,0.01,Wunderground v.1.15,2013-05-19 22:30:00,
2013-05-19 18:35:00,74.0,66.3,30.10,ENE,63,0.0,3.0,77,0.00,,,0.01,Wunderground v.1.15,2013-05-19 22:35:00,
2013-05-19 18:40:00,73.7,66.4,30.10,ENE,63,1.0,1.0,78,0.00,,,0.01,Wunderground v.1.15,2013-05-19 22:40:00,
2013-05-19 18:45:00,73.5,66.2,30.10,ENE,63,2.0,3.0,78,0.00,,,0.01,Wunderground v.1.15,2013-05-19 22:45:00,
2013-05-19 18:50:00,73.3,66.4,30.10,NE,40,5.0,5.0,79,0.00,,,0.01,Wunderground v.1.15,2013-05-19 22:50:00,
2013-05-19 18:55:00,72.7,66.5,30.10,ENE,59,7.0,9.0,81,0.00,,,0.01,Wunderground v.1.15,2013-05-19 22:55:00,
2013-05-19 19:00:00,72.2,66.4,30.10,ENE,61,3.0,5.0,82,0.00,,,0.01,Wunderground v.1.15,2013-05-19 23:00:00,
2013-05-19 19:05:00,72.0,66.6,30.10,NE,34,3.0,9.0,83,0.00,,,0.01,Wunderground v.1.15,2013-05-19 23:05:00,
2013-05-19 19:10:00,71.8,66.4,30.10,ENE,57,1.0,4.0,83,0.00,,,0.01,Wunderground v.1.15,2013-05-19 23:10:00,
2013-05-19 19:15:00,71.7,66.6,30.10,East,93,3.0,5.0,84,0.00,,,0.01,Wunderground v.1.15,2013-05-19 23:15:00,
2013-05-19 19:20:00,71.6,66.8,30.11,NE,54,3.0,3.0,85,0.00,,,0.01,Wunderground v.1.15,2013-05-19 23:20:00,
2013-05-19 19:25:00,71.4,66.7,30.11,ENE,74,3.0,6.0,85,0.00,,,0.01,Wunderground v.1.15,2013-05-19 23:25:00,
2013-05-19 19:30:00,71.2,66.8,30.11,ENE,66,5.0,5.0,86,0.00,,,0.01,Wunderground v.1.15,2013-05-19 23:30:00,
2013-05-19 19:35:00,71.0,66.9,30.11,NE,48,2.0,5.0,87,0.00,,,0.01,Wunderground v.1.15,2013-05-19 23:35:00,
2013-05-19 19:40:00,70.8,66.7,30.11,East,89,2.0,3.0,87,0.00,,,0.01,Wunderground v.1.15,2013-05-19 23:40:00,
2013-05-19 19:45:00,70.7,66.6,30.11,NE,46,3.0,5.0,87,0.00,,,0.01,Wunderground v.1.15,2013-05-19 23:45:00,
2013-05-19 19:50:00,70.5,66.4,30.10,East,94,2.0,3.0,87,0.00,,,0.01,Wunderground v.1.15,2013-05-19 23:50:00,
2013-05-19 19:55:00,70.3,66.6,30.10,ENE,61,3.0,8.0,88,0.00,,,0.01,Wunderground v.1.15,2013-05-19 23:55:00,
2013-05-19 20:00:00,70.2,66.5,30.10,NE,42,3.0,5.0,88,0.00,,,0.01,Wunderground v.1.15,2013-05-20 00:00:00,
2013-05-19 20:05:00,70.1,66.4,30.11,ESE,107,2.0,7.0,88,0.00,,,0.01,Wunderground v.1.15,2013-05-20 00:05:00,
2013-05-19 20:10:00,70.1,66.4,30.11,East,89,1.0,3.0,88,0.00,,,0.01,Wunderground v.1.15,2013-05-20 00:10:00,
2013-05-19 20:16:00,70.0,66.3,30.11,ENE,64,2.0,6.0,88,0.00,,,0.01,Wunderground v.1.15,2013-05-20 00:16:00,
2013-05-19 20:21:00,69.9,66.2,30.11,NE,56,3.0,3.0,88,0.00,,,0.01,Wunderground v.1.15,2013-05-20 00:21:00,
2013-05-19 20:26:00,69.9,66.5,30.11,NE,36,3.0,4.0,89,0.00,,,0.01,Wunderground v.1.15,2013-05-20 00:26:00,
2013-05-19 20:31:00,69.8,66.4,30.12,NE,36,1.0,2.0,89,0.00,,,0.01,Wunderground v.1.15,2013-05-20 00:31:00,
2013-05-19 20:36:00,69.8,66.4,30.11,NE,48,2.0,4.0,89,0.00,,,0.01,Wunderground v.1.15,2013-05-20 00:36:00,
2013-05-19 20:41:00,69.9,66.5,30.11,NE,45,2.0,2.0,89,0.00,,,0.01,Wunderground v.1.15,2013-05-20 00:41:00,
2013-05-19 20:46:00,69.8,66.7,30.11,NE,43,2.0,4.0,90,0.00,,,0.01,Wunderground v.1.15,2013-05-20 00:46:00,
2013-05-19 20:51:00,69.8,66.7,30.11,NE,43,0.0,1.0,90,0.00,,,0.01,Wunderground v.1.15,2013-05-20 00:51:00,
2013-05-19 20:56:00,69.8,66.7,30.11,NE,43,1.0,3.0,90,0.00,,,0.01,Wunderground v.1.15,2013-05-20 00:56:00,
2013-05-19 21:01:00,69.8,66.7,30.12,NE,41,0.0,3.0,90,0.00,,,0.01,Wunderground v.1.15,2013-05-20 01:01:00,
2013-05-19 21:06:00,69.9,66.8,30.12,ENE,68,1.0,4.0,90,0.00,,,0.01,Wunderground v.1.15,2013-05-20 01:06:00,
2013-05-19 21:11:00,69.8,66.7,30.12,East,80,1.0,2.0,90,0.00,,,0.01,Wunderground v.1.15,2013-05-20 01:11:00,
2013-05-19 21:16:00,69.8,66.7,30.13,ENE,64,1.0,4.0,90,0.00,,,0.01,Wunderground v.1.15,2013-05-20 01:16:00,
2013-05-19 21:21:00,69.8,66.7,30.12,SE,136,3.0,3.0,90,0.00,,,0.01,Wunderground v.1.15,2013-05-20 01:21:00,
2013-05-19 21:26:00,69.7,66.6,30.12,NE,45,2.0,3.0,90,0.00,,,0.01,Wunderground v.1.15,2013-05-20 01:26:00,
2013-05-19 21:31:00,69.7,66.6,30.13,NE,42,2.0,5.0,90,0.00,,,0.01,Wunderground v.1.15,2013-05-20 01:31:00,
2013-05-19 21:36:00,69.7,66.6,30.13,ENE,59,3.0,5.0,90,0.00,,,0.01,Wunderground v.1.15,2013-05-20 01:36:00,
2013-05-19 21:41:00,69.6,66.5,30.13,NE,52,2.0,2.0,90,0.00,,,0.01,Wunderground v.1.15,2013-05-20 01:41:00,
2013-05-19 21:46:00,69.6,66.5,30.14,ENE,61,2.0,5.0,90,0.00,,,0.01,Wunderground v.1.15,2013-05-20 01:46:00,
2013-05-19 21:51:00,69.5,66.4,30.14,NE,50,2.0,4.0,90,0.00,,,0.01,Wunderground v.1.15,2013-05-20 01:51:00,
2013-05-19 21:56:00,69.4,66.3,30.14,NE,40,2.0,5.0,90,0.00,,,0.01,Wunderground v.1.15,2013-05-20 01:56:00,
2013-05-19 22:01:00,69.3,66.2,30.14,NE,42,3.0,7.0,90,0.00,,,0.01,Wunderground v.1.15,2013-05-20 02:01:00,
2013-05-19 22:06:00,69.3,66.2,30.14,ENE,71,3.0,7.0,90,0.00,,,0.01,Wunderground v.1.15,2013-05-20 02:06:00,
2013-05-19 22:11:00,69.2,66.1,30.14,NE,44,2.0,4.0,90,0.00,,,0.01,Wunderground v.1.15,2013-05-20 02:11:00,
2013-05-19 22:16:00,69.1,66.0,30.14,ENE,63,5.0,5.0,90,0.00,,,0.01,Wunderground v.1.15,2013-05-20 02:16:00,
2013-05-19 22:21:00,68.9,65.8,30.14,ENE,60,2.0,6.0,90,0.00,,,0.01,Wunderground v.1.15,2013-05-20 02:21:00,
2013-05-19 22:26:00,68.8,65.7,30.15,NE,51,0.0,8.0,90,0.00,,,0.01,Wunderground v.1.15,2013-05-20 02:26:00,
2013-05-19 22:31:00,68.7,65.6,30.15,ENE,65,6.0,6.0,90,0.00,,,0.01,Wunderground v.1.15,2013-05-20 02:31:00,
2013-05-19 22:36:00,68.6,65.5,30.15,ENE,59,1.0,6.0,90,0.00,,,0.01,Wunderground v.1.15,2013-05-20 02:36:00,
2013-05-19 22:42:00,68.4,65.4,30.15,NE,52,3.0,7.0,90,0.00,,,0.01,Wunderground v.1.15,2013-05-20 02:42:00,
2013-05-19 22:47:00,68.3,65.6,30.14,ENE,63,3.0,7.0,91,0.00,,,0.01,Wunderground v.1.15,2013-05-20 02:47:00,
2013-05-19 22:52:00,68.2,65.2,30.14,East,82,4.0,6.0,90,0.00,,,0.01,Wunderground v.1.15,2013-05-20 02:52:00,
2013-05-19 22:57:00,68.1,65.4,30.14,NE,38,3.0,8.0,91,0.00,,,0.01,Wunderground v.1.15,2013-05-20 02:57:00,
2013-05-19 23:02:00,68.0,65.3,30.14,ENE,61,3.0,7.0,91,0.00,,,0.01,Wunderground v.1.15,2013-05-20 03:02:00,
2013-05-19 23:07:00,68.0,65.3,30.14,NE,55,3.0,9.0,91,0.00,,,0.01,Wunderground v.1.15,2013-05-20 03:07:00,
2013-05-19 23:12:00,67.9,65.2,30.14,NE,54,6.0,6.0,91,0.00,,,0.01,Wunderground v.1.15,2013-05-20 03:12:00,
2013-05-19 23:17:00,67.9,65.2,30.13,NNE,32,1.0,9.0,91,0.00,,,0.01,Wunderground v.1.15,2013-05-20 03:17:00,
2013-05-19 23:22:00,67.8,65.1,30.13,ENE,72,2.0,5.0,91,0.00,,,0.01,Wunderground v.1.15,2013-05-20 03:22:00,
2013-05-19 23:27:00,67.7,65.0,30.13,East,84,3.0,5.0,91,0.00,,,0.01,Wunderground v.1.15,2013-05-20 03:27:00,
2013-05-19 23:32:00,67.7,65.0,30.13,ENE,71,6.0,6.0,91,0.00,,,0.01,Wunderground v.1.15,2013-05-20 03:32:00,
2013-05-19 23:37:00,67.7,65.0,30.14,NE,51,3.0,7.0,91,0.00,,,0.01,Wunderground v.1.15,2013-05-20 03:37:00,
2013-05-19 23:42:00,67.7,65.0,30.14,NE,36,3.0,5.0,91,0.00,,,0.01,Wunderground v.1.15,2013-05-20 03:42:00,
2013-05-19 23:47:00,67.6,65.2,30.14,ENE,73,1.0,6.0,92,0.00,,,0.01,Wunderground v.1.15,2013-05-20 03:47:00,
2013-05-19 23:52:00,67.5,65.1,30.13,ENE,78,1.0,2.0,92,0.00,,,0.01,Wunderground v.1.15,2013-05-20 03:52:00,
2013-05-19 23:57:00,67.4,65.3,30.14,ESE,111,0.0,2.0,93,0.00,,,0.01,Wunderground v.1.15,2013-05-20 03:57:00,